Time,TemperatureF,DewpointF,PressureIn,WindDirection,WindDirectionDegrees,WindSpeedMPH,WindSpeedGustMPH,Humidity,HourlyPrecipIn,Conditions,Clouds,dailyrainin,SoftwareType,DateUTC
2013-05-12 00:08:00,41.2,30.0,30.07,West,264,0.0,2.0,65,0.00,,,0.00,weatherlink.com 1.10,2013-05-12 05:08:00,
2013-05-12 00:23:00,40.7,30.0,30.07,West,271,1.0,3.0,66,0.00,,,0.00,weatherlink.com 1.10,2013-05-12 05:23:00,
2013-05-12 00:38:00,40.7,30.0,30.07,West,271,1.0,3.0,66,0.00,,,0.00,weatherlink.com 1.10,2013-05-12 05:38:00,
2013-05-12 00:53:00,40.5,30.0,30.08,West,278,1.0,3.0,66,0.00,,,0.00,weatherlink.com 1.10,2013-05-12 05:53:00,
2013-05-12 01:08:00,40.3,30.0,30.08,West,267,0.0,2.0,66,0.00,,,0.00,weatherlink.com 1.10,2013-05-12 06:08:00,
2013-05-12 01:23:00,40.2,30.0,30.08,NW,322,0.0,4.0,67,0.00,,,0.00,weatherlink.com 1.10,2013-05-12 06:23:00,
2013-05-12 01:38:00,40.2,30.0,30.08,WNW,301,1.0,3.0,66,0.00,,,0.00,weatherlink.com 1.10,2013-05-12 06:38:00,
2013-05-12 01:53:00,40.3,30.0,30.08,West,278,2.0,3.0,66,0.00,,,0.00,weatherlink.com 1.10,2013-05-12 06:53:00,
2013-05-12 02:08:00,40.1,29.0,30.08,West,266,2.0,4.0,66,0.00,,,0.00,weatherlink.com 1.10,2013-05-12 07:08:00,
2013-05-12 02:23:00,40.0,29.0,30.08,NNW,338,1.0,4.0,66,0.00,,,0.00,weatherlink.com 1.10,2013-05-12 07:23:00,
2013-05-12 02:38:00,39.9,30.0,30.08,NW,304,3.0,5.0,67,0.00,,,0.00,weatherlink.com 1.10,2013-05-12 07:38:00,
2013-05-12 02:53:00,39.8,30.0,30.08,NW,305,0.0,8.0,68,0.00,,,0.00,weatherlink.com 1.10,2013-05-12 07:53:00,
2013-05-12 03:08:00,39.4,30.0,30.08,NW,314,1.0,5.0,68,0.00,,,0.00,weatherlink.com 1.10,2013-05-12 08:08:00,
2013-05-12 03:23:00,39.2,29.0,30.09,West,280,1.0,5.0,68,0.00,,,0.00,weatherlink.com 1.10,2013-05-12 08:23:00,
2013-05-12 03:38:00,39.1,29.0,30.09,NW,307,2.0,6.0,68,0.00,,,0.00,weatherlink.com 1.10,2013-05-12 08:38:00,
2013-05-12 03:53:00,38.9,29.0,30.09,WNW,299,3.0,6.0,69,0.00,,,0.00,weatherlink.com 1.10,2013-05-12 08:53:00,
2013-05-12 04:08:00,38.7,30.0,30.09,WNW,297,3.0,5.0,70,0.00,,,0.00,weatherlink.com 1.10,2013-05-12 09:08:00,
2013-05-12 04:23:00,38.6,30.0,30.09,NW,313,3.0,7.0,70,0.00,,,0.00,weatherlink.com 1.10,2013-05-12 09:23:00,
2013-05-12 04:38:00,38.1,30.0,30.09,NW,308,2.0,4.0,72,0.00,,,0.00,weatherlink.com 1.10,2013-05-12 09:38:00,
2013-05-12 04:53:00,37.8,30.0,30.09,WNW,299,2.0,5.0,73,0.00,,,0.00,weatherlink.com 1.10,2013-05-12 09:53:00,
2013-05-12 05:08:00,37.3,30.0,30.09,NW,314,1.0,3.0,74,0.00,,,0.00,weatherlink.com 1.10,2013-05-12 10:08:00,
2013-05-12 05:23:00,37.0,30.0,30.10,WNW,297,0.0,3.0,75,0.00,,,0.00,weatherlink.com 1.10,2013-05-12 10:23:00,
2013-05-12 05:38:00,36.5,30.0,30.10,WSW,239,0.0,1.0,77,0.00,,,0.00,weatherlink.com 1.10,2013-05-12 10:38:00,
2013-05-12 05:53:00,35.9,30.0,30.10,SW,233,0.0,1.0,80,0.00,,,0.00,weatherlink.com 1.10,2013-05-12 10:53:00,
2013-05-12 06:08:00,36.6,30.0,30.10,WSW,255,0.0,1.0,78,0.00,,,0.00,weatherlink.com 1.10,2013-05-12 11:08:00,
2013-05-12 06:23:00,37.2,31.0,30.11,West,264,0.0,1.0,77,0.00,,,0.00,weatherlink.com 1.10,2013-05-12 11:23:00,
2013-05-12 06:38:00,38.0,31.0,30.11,West,270,0.0,2.0,76,0.00,,,0.00,weatherlink.com 1.10,2013-05-12 11:38:00,
2013-05-12 06:53:00,38.5,32.0,30.11,WNW,284,2.0,2.0,76,0.00,,,0.00,weatherlink.com 1.10,2013-05-12 11:53:00,
2013-05-12 07:08:00,39.6,32.0,30.12,NW,326,2.0,5.0,75,0.00,,,0.00,weatherlink.com 1.10,2013-05-12 12:08:00,
2013-05-12 07:23:00,40.5,32.0,30.12,WNW,291,3.0,8.0,72,0.00,,,0.00,weatherlink.com 1.10,2013-05-12 12:23:00,
2013-05-12 07:38:00,41.6,32.0,30.12,NW,311,5.0,8.0,70,0.00,,,0.00,weatherlink.com 1.10,2013-05-12 12:38:00,
2013-05-12 07:53:00,42.4,31.0,30.12,NE,47,4.0,13.0,64,0.00,,,0.00,weatherlink.com 1.10,2013-05-12 12:53:00,
2013-05-12 08:08:00,42.9,30.0,30.13,NNW,343,4.0,14.0,61,0.00,,,0.00,weatherlink.com 1.10,2013-05-12 13:08:00,
2013-05-12 08:24:00,43.6,32.0,30.13,NNW,328,5.0,12.0,64,0.00,,,0.00,weatherlink.com 1.10,2013-05-12 13:24:00,
2013-05-12 08:39:00,43.4,30.0,30.14,WNW,292,6.0,17.0,59,0.00,,,0.00,weatherlink.com 1.10,2013-05-12 13:39:00,
2013-05-12 08:54:00,43.8,28.0,30.14,NNW,338,5.0,15.0,54,0.00,,,0.00,weatherlink.com 1.10,2013-05-12 13:54:00,
2013-05-12 09:09:00,44.3,30.0,30.14,WNW,295,1.0,15.0,58,0.00,,,0.00,weatherlink.com 1.10,2013-05-12 14:09:00,
2013-05-12 09:24:00,44.3,28.0,30.14,NNE,25,7.0,17.0,53,0.00,,,0.00,weatherlink.com 1.10,2013-05-12 14:24:00,
2013-05-12 09:39:00,45.0,28.0,30.14,NW,316,8.0,16.0,52,0.00,,,0.00,weatherlink.com 1.10,2013-05-12 14:39:00,
2013-05-12 09:54:00,45.1,29.0,30.14,SW,226,6.0,14.0,54,0.00,,,0.00,weatherlink.com 1.10,2013-05-12 14:54:00,
2013-05-12 10:09:00,46.6,31.0,30.14,NE,40,2.0,11.0,55,0.00,,,0.00,weatherlink.com 1.10,2013-05-12 15:09:00,
2013-05-12 10:24:00,46.5,30.0,30.14,West,262,3.0,16.0,53,0.00,,,0.00,weatherlink.com 1.10,2013-05-12 15:24:00,
2013-05-12 10:39:00,46.7,31.0,30.14,WNW,299,6.0,11.0,54,0.00,,,0.00,weatherlink.com 1.10,2013-05-12 15:39:00,
2013-05-12 10:54:00,47.3,31.0,30.14,West,281,4.0,16.0,54,0.00,,,0.00,weatherlink.com 1.10,2013-05-12 15:54:00,
2013-05-12 11:09:00,47.9,30.0,30.14,WNW,300,1.0,15.0,51,0.00,,,0.00,weatherlink.com 1.10,2013-05-12 16:09:00,
2013-05-12 11:24:00,48.3,32.0,30.14,WSW,257,10.0,13.0,54,0.00,,,0.00,weatherlink.com 1.10,2013-05-12 16:24:00,
2013-05-12 11:39:00,48.6,30.0,30.14,NW,326,5.0,13.0,49,0.00,,,0.00,weatherlink.com 1.10,2013-05-12 16:39:00,
2013-05-12 11:54:00,48.5,32.0,30.14,NW,307,6.0,16.0,53,0.00,,,0.00,weatherlink.com 1.10,2013-05-12 16:54:00,
2013-05-12 12:09:00,49.1,29.0,30.13,WNW,295,11.0,17.0,47,0.00,,,0.00,weatherlink.com 1.10,2013-05-12 17:09:00,
2013-05-12 12:24:00,49.9,30.0,30.13,West,259,9.0,19.0,46,0.00,,,0.00,weatherlink.com 1.10,2013-05-12 17:24:00,
2013-05-12 12:39:00,50.5,30.0,30.13,NW,314,3.0,15.0,46,0.00,,,0.00,weatherlink.com 1.10,2013-05-12 17:39:00,
2013-05-12 12:54:00,51.4,32.0,30.13,WSW,257,3.0,14.0,48,0.00,,,0.00,weatherlink.com 1.10,2013-05-12 17:54:00,
2013-05-12 13:09:00,51.2,29.0,30.12,NW,326,1.0,20.0,43,0.00,,,0.00,weatherlink.com 1.10,2013-05-12 18:09:00,
2013-05-12 13:24:00,51.4,28.0,30.12,NW,317,6.0,14.0,40,0.00,,,0.00,weatherlink.com 1.10,2013-05-12 18:24:00,
2013-05-12 13:39:00,51.7,29.0,30.12,North,4,4.0,17.0,42,0.00,,,0.00,weatherlink.com 1.10,2013-05-12 18:39:00,
2013-05-12 13:54:00,52.7,31.0,30.11,NNW,333,6.0,16.0,44,0.00,,,0.00,weatherlink.com 1.10,2013-05-12 18:54:00,
2013-05-12 14:09:00,52.6,28.0,30.11,NNE,32,9.0,14.0,39,0.00,,,0.00,weatherlink.com 1.10,2013-05-12 19:09:00,
2013-05-12 14:24:00,53.6,31.0,30.11,West,263,7.0,14.0,43,0.00,,,0.00,weatherlink.com 1.10,2013-05-12 19:24:00,
2013-05-12 14:39:00,53.0,33.0,30.10,NW,307,3.0,17.0,47,0.00,,,0.00,weatherlink.com 1.10,2013-05-12 19:39:00,
2013-05-12 14:54:00,53.5,31.0,30.10,WNW,300,6.0,14.0,42,0.00,,,0.00,weatherlink.com 1.10,2013-05-12 19:54:00,
2013-05-12 15:09:00,54.5,30.0,30.10,WSW,245,12.0,14.0,40,0.00,,,0.00,weatherlink.com 1.10,2013-05-12 20:09:00,
2013-05-12 15:24:00,54.2,31.0,30.10,NW,319,9.0,16.0,42,0.00,,,0.00,weatherlink.com 1.10,2013-05-12 20:24:00,
2013-05-12 15:39:00,54.4,32.0,30.09,WNW,292,7.0,17.0,42,0.00,,,0.00,weatherlink.com 1.10,2013-05-12 20:39:00,
2013-05-12 15:54:00,54.8,32.0,30.09,NW,314,11.0,18.0,42,0.00,,,0.00,weatherlink.com 1.10,2013-05-12 20:54:00,
2013-05-12 16:09:00,54.9,31.0,30.08,NW,326,8.0,18.0,40,0.00,,,0.00,weatherlink.com 1.10,2013-05-12 21:09:00,
2013-05-12 16:24:00,54.9,30.0,30.08,NNW,347,12.0,17.0,39,0.00,,,0.00,weatherlink.com 1.10,2013-05-12 21:24:00,
2013-05-12 16:39:00,55.2,30.0,30.07,WSW,255,16.0,16.0,38,0.00,,,0.00,weatherlink.com 1.10,2013-05-12 21:39:00,
2013-05-12 16:54:00,55.4,30.0,30.07,NNW,340,7.0,18.0,38,0.00,,,0.00,weatherlink.com 1.10,2013-05-12 21:54:00,
2013-05-12 17:09:00,55.5,29.0,30.07,West,264,8.0,17.0,37,0.00,,,0.00,weatherlink.com 1.10,2013-05-12 22:09:00,
2013-05-12 17:24:00,55.4,30.0,30.07,WNW,289,7.0,14.0,38,0.00,,,0.00,weatherlink.com 1.10,2013-05-12 22:24:00,
2013-05-12 17:39:00,55.6,31.0,30.07,WSW,242,4.0,15.0,40,0.00,,,0.00,weatherlink.com 1.10,2013-05-12 22:39:00,
2013-05-12 17:54:00,55.2,30.0,30.07,WNW,300,3.0,20.0,39,0.00,,,0.00,weatherlink.com 1.10,2013-05-12 22:54:00,
2013-05-12 18:09:00,55.7,32.0,30.07,West,270,4.0,17.0,40,0.00,,,0.00,weatherlink.com 1.10,2013-05-12 23:09:00,
2013-05-12 18:24:00,55.3,31.0,30.06,NW,305,3.0,14.0,39,0.00,,,0.00,weatherlink.com 1.10,2013-05-12 23:24:00,
2013-05-12 18:39:00,55.2,32.0,30.06,WSW,257,7.0,15.0,41,0.00,,,0.00,weatherlink.com 1.10,2013-05-12 23:39:00,
2013-05-12 18:54:00,55.2,32.0,30.06,West,269,6.0,13.0,42,0.00,,,0.00,weatherlink.com 1.10,2013-05-12 23:54:00,
2013-05-12 19:10:00,55.0,31.0,30.06,WNW,292,3.0,11.0,40,0.00,,,0.00,weatherlink.com 1.10,2013-05-13 00:10:00,
2013-05-12 19:25:00,54.5,30.0,30.06,WSW,254,4.0,10.0,40,0.00,,,0.00,weatherlink.com 1.10,2013-05-13 00:25:00,
2013-05-12 19:40:00,54.2,31.0,30.06,West,262,1.0,9.0,42,0.00,,,0.00,weatherlink.com 1.10,2013-05-13 00:40:00,
2013-05-12 19:55:00,52.5,32.0,30.06,North,10,2.0,7.0,46,0.00,,,0.00,weatherlink.com 1.10,2013-05-13 00:55:00,
2013-05-12 20:10:00,51.5,32.0,30.07,WNW,287,1.0,5.0,47,0.00,,,0.00,weatherlink.com 1.10,2013-05-13 01:10:00,
2013-05-12 20:25:00,50.9,32.0,30.07,NW,316,1.0,2.0,48,0.00,,,0.00,weatherlink.com 1.10,2013-05-13 01:25:00,
2013-05-12 20:40:00,50.3,32.0,30.07,WNW,286,1.0,1.0,49,0.00,,,0.00,weatherlink.com 1.10,2013-05-13 01:40:00,
2013-05-12 20:55:00,49.9,31.0,30.07,WNW,287,0.0,0.0,49,0.00,,,0.00,weatherlink.com 1.10,2013-05-13 01:55:00,
2013-05-12 21:10:00,49.3,32.0,30.08,WNW,287,0.0,0.0,52,0.00,,,0.00,weatherlink.com 1.10,2013-05-13 02:10:00,
2013-05-12 21:25:00,47.0,32.0,30.08,WNW,286,0.0,0.0,57,0.00,,,0.00,weatherlink.com 1.10,2013-05-13 02:25:00,
2013-05-12 21:40:00,45.7,35.0,30.08,WNW,286,0.0,0.0,67,0.00,,,0.00,weatherlink.com 1.10,2013-05-13 02:40:00,
2013-05-12 21:55:00,44.1,37.0,30.09,WNW,284,0.0,0.0,77,0.00,,,0.00,weatherlink.com 1.10,2013-05-13 02:55:00,
2013-05-12 22:10:00,42.8,37.0,30.09,NE,39,0.0,1.0,80,0.00,,,0.00,weatherlink.com 1.10,2013-05-13 03:10:00,
2013-05-12 22:25:00,41.2,36.0,30.09,NNE,22,0.0,1.0,81,0.00,,,0.00,weatherlink.com 1.10,2013-05-13 03:25:00,
2013-05-12 22:40:00,40.3,37.0,30.09,NNE,24,0.0,1.0,86,0.00,,,0.00,weatherlink.com 1.10,2013-05-13 03:40:00,
2013-05-12 22:55:00,39.4,35.0,30.09,NNE,25,0.0,1.0,85,0.00,,,0.00,weatherlink.com 1.10,2013-05-13 03:55:00,
2013-05-12 23:10:00,38.8,35.0,30.09,NNE,24,0.0,0.0,87,0.00,,,0.00,weatherlink.com 1.10,2013-05-13 04:10:00,
2013-05-12 23:25:00,38.1,35.0,30.09,NNE,24,0.0,0.0,89,0.00,,,0.00,weatherlink.com 1.10,2013-05-13 04:25:00,
2013-05-12 23:40:00,37.9,36.0,30.10,NNE,25,0.0,0.0,91,0.00,,,0.00,weatherlink.com 1.10,2013-05-13 04:40:00,
2013-05-12 23:55:00,37.7,35.0,30.10,NNE,25,0.0,0.0,90,0.00,,,0.00,weatherlink.com 1.10,2013-05-13 04:55:00,